This is the latest recevied weather packets stored in our database for station/object OM1ATS-6. If no packets are shown the sender has not sent any weather packets the latest 1 day(s).
| Time | Temp. | Humidity | Pressure | Rain* | Wind** | Luminosity | Snow |
|---|---|---|---|---|---|---|---|
| 1778115130 | 15.56° C | 69% | 1010.5 hPa | - | - | - | - |
| 1778114530 | 16.11° C | 69% | 1010.5 hPa | - | - | - | - |
| 1778113630 | 16.11° C | 69% | 1010.5 hPa | - | - | - | - |
| 1778113330 | 16.11° C | 69% | 1010.5 hPa | - | - | - | - |
| 1778112430 | 16.67° C | 69% | 1010.5 hPa | - | - | - | - |
| 1778111530 | 16.67° C | 68% | 1010.3 hPa | - | - | - | - |
| 1778110030 | 17.22° C | 68% | 1010.1 hPa | - | - | - | - |
| 1778109430 | 17.22° C | 67% | 1009.7 hPa | - | - | - | - |
| 1778106130 | 17.78° C | 65% | 1009.7 hPa | - | - | - | - |
| 1778105530 | 17.78° C | 65% | 1009.1 hPa | - | - | - | - |
| 1778104630 | 18.33° C | 65% | 1009 hPa | - | - | - | - |
| 1778104330 | 18.33° C | 64% | 1009 hPa | - | - | - | - |
| 1778103730 | 18.33° C | 64% | 1009 hPa | - | - | - | - |
| 1778103130 | 18.33° C | 64% | 1009 hPa | - | - | - | - |
| 1778101630 | 18.33° C | 63% | 1009.3 hPa | - | - | - | - |
| 1778100430 | 18.89° C | 62% | 1009.2 hPa | - | - | - | - |
| 1778100130 | 18.89° C | 62% | 1009.2 hPa | - | - | - | - |
| 1778099530 | 18.89° C | 61% | 1008.9 hPa | - | - | - | - |
| 1778099230 | 18.89° C | 61% | 1008.9 hPa | - | - | - | - |
| 1778098930 | 18.89° C | 60% | 1008.9 hPa | - | - | - | - |
| 1778098029 | 19.44° C | 60% | 1008.8 hPa | - | - | - | - |
| 1778097730 | 19.44° C | 60% | 1008.8 hPa | - | - | - | - |
| 1778097130 | 19.44° C | 59% | 1009.1 hPa | - | - | - | - |
| 1778096230 | 19.44° C | 58% | 1008.9 hPa | - | - | - | - |
| 1778094730 | 20° C | 57% | 1008.7 hPa | - | - | - | - |
* Rain since midnight (hover to see other rain measurements)
** Current wind speed in m/s (hover to see current wind gust speed)